sat.trackr.live / text

‹ back to catalog

FLOCK 4BE-9

NORAD 60514 · 2024-149AY

PAYLOAD ACTIVE UNKNOWN

§ Identity

Operator
Country
US
Launch date
2024-08-16
Launch site
AFWTR
Launch vehicle
Mass (kg)
RCS (m²)

Purposes: earth_obs

External: N2YO · Heavens-Above · Gunter

§ Orbital elements

Epoch: 2026-05-25T03:49:39.230976Z

Period
93.51 min
Inclination
97.3790°
Eccentricity
0.0003137
Mean motion
15.40009754 rev/d
Perigee alt
443.9 km
Apogee alt
448.2 km
Semi-major
6,824.2 km
B*
3.9065e-4
RAAN
229.2212°
Arg perigee
52.6416°
Mean anomaly
307.5115°
Rev number
9,877

§ Raw data

FLOCK 4BE-91 60514U 24149AY  26145.15948184  .00015522  00000+0  39065-3 0  99942 60514  97.3790 229.2212 0003137  52.6416 307.5115 15.40009754 98779

JSON: /api/v1/satellites/60514 · /tle

For live sub-satellite position, see the globe view (requires WebGL).

§ Visibility from observer

Set your observer location to see the next 7 days of passes ≥ 10°. The values pass through the URL so the page stays shareable.

No JS? Fill the form by hand. The geolocation button needs JavaScript.